Flag for Canada Weather past 2 weeks in Cambridge, Ontario, Canada

Now
50 °F

Sunny.


Feels Like: 43 °F
Forecast: N/A
Wind: 22 mph from Northwest

Location: Waterloo Well


UV Index: N/A

Visibility: 9 mi


Pressure: 29.98 "Hg

Humidity: 30%

Dew point: 19 °F

Location of CambridgeLocation

Historic Weather in Cambridge

°F

Cambridge temperature yesterday

Maximum temperature yesterday: 61 °F (at 12:00 AM)
Minimum temperature yesterday: 37 °F (at 10:00 PM)
Average temperature yesterday: 47 °F

Past Weeks' High & Low Weather Summary

 TemperatureHumidityPressure
High73 °F (Apr 21, 4:00 PM)100% (Apr 9, 5:00 AM)30.54 "Hg (Apr 9, 5:00 AM)
Low18 °F (Apr 16, 4:00 AM)22% (Apr 20, 6:00 PM)29.50 "Hg (Apr 14, 9:00 AM)
Average44 °F69%30.01 "Hg
* Reported Apr 8 2:00 PM — Apr 23 2:00 PM, Cambridge, Weather by CustomWeather, © 2014

Note: Actual official high and low records may vary slightly from our data, if they occured in-between our weather recording intervals... More about our weather records

Advertising

Historic Weather Conditions — Data for Previous 24 hours

 ConditionsComfort  
Time TempWeatherWind HumidityBarometerVisibility
2:00 PM
Apr 23
46 °FSunny.18 mph40%29.98 "Hg9 mi
1:00 PM45 °FSunny.17 mph46%29.97 "Hg9 mi
12:00 PM43 °FPassing clouds.20 mph57%29.97 "Hg9 mi
11:00 AM39 °FPartly sunny.15 mph65%29.97 "Hg9 mi
10:04 AM39 °FPartly sunny.18 mph70%29.96 "Hg9 mi
9:00 AM36 °FPartly sunny.20 mph75%29.94 "Hg9 mi
8:00 AM36 °FOvercast.17 mph81%29.92 "Hg9 mi
7:00 AM36 °FOvercast.20 mph81%29.89 "Hg9 mi
6:00 AM36 °FOvercast.18 mph81%29.86 "Hg9 mi
5:00 AM36 °FOvercast.16 mph81%29.83 "Hg9 mi
4:00 AM36 °FOvercast.20 mph81%29.81 "Hg9 mi
3:00 AM36 °FOvercast.21 mph87%29.78 "Hg9 mi
2:00 AM37 °FMostly cloudy.20 mph81%29.78 "Hg9 mi
1:47 AM36 °FMostly cloudy.22 mph87%29.78 "Hg9 mi
1:00 AM37 °FOvercast.18 mph87%29.77 "Hg9 mi
12:00 AM37 °FOvercast.15 mph87%29.77 "Hg9 mi
11:00 PM
Apr 22
37 °FMostly cloudy.15 mph81%29.77 "Hg9 mi
10:00 PM37 °FMostly cloudy.21 mph81%29.76 "Hg9 mi
9:00 PM39 °FMostly cloudy.13 mph81%29.74 "Hg9 mi
8:00 PM39 °FOvercast.16 mph81%29.72 "Hg9 mi
7:00 PM39 °FOvercast.22 mph87%29.70 "Hg9 mi
6:00 PM39 °FOvercast.21 mph87%29.69 "Hg9 mi
5:00 PM41 °FMostly cloudy.24 mph81%29.68 "Hg9 mi
4:00 PM43 °FOvercast.24 mph76%29.67 "Hg9 mi
3:00 PM41 °FOvercast.21 mph81%29.67 "Hg9 mi
Weather by CustomWeather, © 2014

See weather overview